| time (UTC) | temp F | wind direction | speed MPH | gust MPH | rain 1hr in | rain 24hr in | rain mn in | humidity % | barometer mb |
| 20260507040555 | 54 | 126 | 0.0 | 0.0 | 0.00 | 0.00 | 0.00 | 92 | 1004.8 |
| 20260507040051 | 55 | 122 | 0.0 | 0.0 | 0.00 | 0.00 | 0.00 | 92 | 1004.9 |
| 20260507035547 | 55 | 111 | 0.0 | 0.0 | 0.00 | 0.00 | 0.00 | 91 | 1004.9 |
| 20260507035043 | 55 | 153 | 0.0 | 1.0 | 0.00 | 0.00 | 0.00 | 91 | 1005.0 |
| 20260507034540 | 56 | 123 | 0.0 | 0.0 | 0.00 | 0.00 | 0.00 | 90 | 1004.6 |
| 20260507034038 | 56 | 99 | 0.0 | 0.0 | 0.00 | 0.00 | 0.00 | 89 | 1004.6 |
| 20260507033536 | 56 | 112 | 0.0 | 3.0 | 0.00 | 0.00 | 0.00 | 88 | 1004.5 |
| 20260507033033 | 56 | 123 | 1.0 | 1.0 | 0.00 | 0.00 | 0.00 | 88 | 1004.2 |
| 20260507032530 | 57 | 88 | 0.0 | 5.0 | 0.00 | 0.00 | 0.00 | 87 | 1004.3 |
| 20260507032026 | 57 | 156 | 2.0 | 3.0 | 0.00 | 0.00 | 0.00 | 88 | 1004.2 |
| 20260507031522 | 57 | 124 | 0.0 | 1.0 | 0.00 | 0.00 | 0.00 | 90 | 1004.0 |
| 20260507031020 | 58 | 146 | 0.0 | 1.0 | 0.00 | 0.00 | 0.00 | 93 | 1004.0 |
| 20260507030516 | 58 | 35 | 0.0 | 0.0 | 0.00 | 0.00 | 0.00 | 95 | 1003.7 |
| 20260507030015 | 59 | 22 | 1.0 | 1.0 | 0.00 | 0.00 | 0.00 | 95 | 1003.9 |
| 20260507025511 | 59 | 76 | 0.0 | 1.0 | 0.00 | 0.00 | 0.00 | 96 | 1003.8 |
| 20260507025009 | 59 | 119 | 0.0 | 0.0 | 0.00 | 0.00 | 0.00 | 95 | 1003.7 |
| 20260507024506 | 59 | 133 | 1.0 | 1.0 | 0.00 | 0.00 | 0.00 | 95 | 1004.0 |
| 20260507024003 | 59 | 132 | 1.0 | 1.0 | 0.00 | 0.00 | 0.00 | 95 | 1003.8 |
| 20260507023458 | 59 | 119 | 0.0 | 0.0 | 0.00 | 0.00 | 0.00 | 95 | 1003.7 |
| 20260507022956 | 59 | 124 | 0.0 | 1.0 | 0.00 | 0.00 | 0.00 | 95 | 1003.5 |
| 20260507022453 | 59 | 126 | 0.0 | 0.0 | 0.00 | 0.00 | 0.00 | 95 | 1003.6 |
| 20260507021948 | 59 | 134 | 1.0 | 1.0 | 0.00 | 0.00 | 0.00 | 95 | 1003.7 |
| 20260507021444 | 59 | 123 | 0.0 | 0.0 | 0.00 | 0.00 | 0.00 | 95 | 1003.6 |
| 20260507020941 | 59 | 133 | 0.0 | 1.0 | 0.00 | 0.00 | 0.00 | 95 | 1003.4 |
| 20260507020438 | 59 | 125 | 0.0 | 1.0 | 0.00 | 0.00 | 0.00 | 95 | 1003.4 |
| 20260507015935 | 59 | 132 | 0.0 | 0.0 | 0.00 | 0.00 | 0.00 | 95 | 1003.3 |
| 20260507015434 | 59 | 120 | 0.0 | 0.0 | 0.00 | 0.00 | 0.00 | 95 | 1003.4 |
| 20260507014930 | 59 | 118 | 0.0 | 1.0 | 0.00 | 0.00 | 0.00 | 95 | 1003.4 |
| 20260507014427 | 59 | 147 | 0.0 | 1.0 | 0.00 | 0.00 | 0.00 | 95 | 1003.3 |
| 20260507013923 | 59 | 120 | 0.0 | 0.0 | 0.00 | 0.00 | 0.00 | 95 | 1003.3 |
| 20260507013420 | 59 | 124 | 0.0 | 0.0 | 0.00 | 0.00 | 0.00 | 95 | 1003.5 |
| 20260507012918 | 59 | 114 | 0.0 | 0.0 | 0.00 | 0.00 | 0.00 | 95 | 1003.3 |
| 20260507012414 | 59 | 126 | 0.0 | 1.0 | 0.00 | 0.00 | 0.00 | 95 | 1003.4 |
| 20260507011910 | 59 | 120 | 0.0 | 1.0 | 0.00 | 0.00 | 0.00 | 95 | 1003.3 |
| 20260507011407 | 59 | 134 | 1.0 | 1.0 | 0.00 | 0.00 | 0.00 | 95 | 1003.4 |
| 20260507010902 | 59 | 151 | 0.0 | 1.0 | 0.00 | 0.00 | 0.00 | 95 | 1003.3 |
| 20260507010357 | 59 | 147 | 0.0 | 1.0 | 0.00 | 0.00 | 0.00 | 95 | 1003.4 |
| 20260507005855 | 59 | 117 | 1.0 | 1.0 | 0.00 | 0.00 | 0.00 | 95 | 1003.4 |
| 20260507005351 | 59 | 173 | 1.0 | 1.0 | 0.00 | 0.00 | 0.00 | 95 | 1003.5 |
| 20260507004848 | 59 | 128 | 0.0 | 1.0 | 0.00 | 0.00 | 0.00 | 95 | 1003.3 |
| 20260507004345 | 59 | 157 | 0.0 | 1.0 | 0.00 | 0.00 | 0.00 | 95 | 1003.4 |
| 20260507003842 | 59 | 161 | 0.0 | 1.0 | 0.00 | 0.00 | 0.00 | 95 | 1003.3 |
| 20260507003338 | 59 | 167 | 0.0 | 1.0 | 0.00 | 0.00 | 0.00 | 95 | 1003.3 |
| 20260507002833 | 59 | 130 | 0.0 | 1.0 | 0.00 | 0.00 | 0.00 | 95 | 1003.2 |
| 20260507002329 | 59 | 143 | 1.0 | 2.0 | 0.00 | 0.00 | 0.00 | 95 | 1003.3 |
| 20260507001827 | 59 | 95 | 0.0 | 1.0 | 0.00 | 0.00 | 0.00 | 95 | 1003.0 |
| 20260507001323 | 59 | 179 | 1.0 | 2.0 | 0.00 | 0.00 | 0.00 | 95 | 1003.1 |
| 20260507000820 | 59 | 116 | 0.0 | 0.0 | 0.00 | 0.00 | 0.00 | 95 | 1003.1 |
| 20260507000315 | 59 | 107 | 0.0 | 0.0 | 0.00 | 0.00 | 0.00 | 95 | 1003.4 |
| 20260506235812 | 59 | 152 | 1.0 | 1.0 | 0.00 | 0.00 | 0.00 | 95 | 1003.2 |
| 20260506235309 | 59 | 141 | 0.0 | 1.0 | 0.00 | 0.00 | 0.00 | 95 | 1002.8 |
| 20260506234805 | 59 | 131 | 0.0 | 2.0 | 0.00 | 0.00 | 0.00 | 95 | 1003.3 |
| 20260506234302 | 59 | 121 | 0.0 | 1.0 | 0.00 | 0.00 | 0.00 | 95 | 1002.9 |
| 20260506233800 | 59 | 127 | 0.0 | 0.0 | 0.00 | 0.00 | 0.00 | 95 | 1003.0 |
| 20260506233250 | 59 | 120 | 0.0 | 0.0 | 0.00 | 0.00 | 0.00 | 95 | 1003.0 |
| 20260506232747 | 59 | 129 | 0.0 | 0.0 | 0.00 | 0.00 | 0.00 | 95 | 1002.9 |
| 20260506232242 | 59 | 136 | 0.0 | 0.0 | 0.00 | 0.00 | 0.00 | 95 | 1003.0 |
| 20260506231740 | 59 | 144 | 0.0 | 1.0 | 0.00 | 0.00 | 0.00 | 95 | 1002.9 |
| 20260506231238 | 59 | 102 | 2.0 | 2.0 | 0.00 | 0.00 | 0.00 | 95 | 1003.1 |
| 20260506230734 | 59 | 115 | 0.0 | 1.0 | 0.00 | 0.00 | 0.00 | 94 | 1003.1 |
| 20260506230231 | 59 | 222 | 0.0 | 1.0 | 0.00 | 0.00 | 0.00 | 94 | 1003.1 |
| 20260506225728 | 59 | 126 | 0.0 | 1.0 | 0.00 | 0.00 | 0.00 | 94 | 1003.2 |
| 20260506225225 | 59 | 123 | 0.0 | 0.0 | 0.00 | 0.00 | 0.00 | 94 | 1003.1 |
| 20260506224721 | 59 | 153 | 0.0 | 1.0 | 0.00 | 0.00 | 0.00 | 94 | 1003.3 |
| 20260506224218 | 59 | 125 | 0.0 | 1.0 | 0.00 | 0.00 | 0.00 | 94 | 1003.4 |
| 20260506223715 | 59 | 126 | 0.0 | 1.0 | 0.00 | 0.00 | 0.00 | 94 | 1003.4 |
| 20260506223210 | 59 | 213 | 0.0 | 1.0 | 0.00 | 0.00 | 0.00 | 93 | 1003.3 |
| 20260506222708 | 59 | 151 | 0.0 | 5.0 | 0.00 | 0.00 | 0.00 | 93 | 1003.1 |
| 20260506222203 | 59 | 187 | 1.0 | 3.0 | 0.00 | 0.00 | 0.00 | 93 | 1003.1 |
| 20260506221701 | 59 | 193 | 2.0 | 2.0 | 0.00 | 0.00 | 0.00 | 93 | 1003.2 |
| 20260506221159 | 59 | 134 | 0.0 | 2.0 | 0.00 | 0.00 | 0.00 | 93 | 1003.5 |
| 20260506220656 | 59 | 144 | 1.0 | 1.0 | 0.00 | 0.00 | 0.00 | 93 | 1003.4 |
| 20260506220150 | 59 | 133 | 0.0 | 1.0 | 0.00 | 0.00 | 0.00 | 93 | 1003.5 |
| 20260506215648 | 59 | 128 | 1.0 | 3.0 | 0.00 | 0.00 | 0.00 | 92 | 1003.2 |
| 20260506215143 | 60 | 132 | 0.0 | 2.0 | 0.00 | 0.00 | 0.00 | 92 | 1003.5 |
| 20260506214640 | 60 | 148 | 0.0 | 1.0 | 0.00 | 0.00 | 0.00 | 92 | 1003.4 |
| 20260506214137 | 60 | 153 | 0.0 | 1.0 | 0.00 | 0.00 | 0.00 | 92 | 1003.4 |
| 20260506213636 | 60 | 357 | 1.0 | 2.0 | 0.00 | 0.00 | 0.00 | 92 | 1003.3 |
| 20260506213132 | 60 | 162 | 1.0 | 3.0 | 0.00 | 0.00 | 0.00 | 92 | 1003.6 |
| 20260506212630 | 60 | 104 | 0.0 | 3.0 | 0.00 | 0.00 | 0.00 | 92 | 1003.5 |
| 20260506212124 | 60 | 103 | 0.0 | 2.0 | 0.00 | 0.00 | 0.00 | 92 | 1003.5 |
| 20260506211620 | 60 | 129 | 0.0 | 1.0 | 0.00 | 0.00 | 0.00 | 92 | 1003.6 |
| 20260506211117 | 60 | 133 | 0.0 | 3.0 | 0.00 | 0.00 | 0.00 | 91 | 1003.7 |
| 20260506210614 | 60 | 124 | 0.0 | 1.0 | 0.00 | 0.00 | 0.00 | 91 | 1003.7 |
| 20260506210110 | 60 | 138 | 0.0 | 1.0 | 0.00 | 0.00 | 0.00 | 91 | 1004.1 |
| 20260506205608 | 60 | 118 | 1.0 | 3.0 | 0.00 | 0.00 | 0.00 | 92 | 1003.9 |
| 20260506205103 | 60 | 220 | 2.0 | 3.0 | 0.00 | 0.00 | 0.00 | 91 | 1004.0 |
| 20260506204601 | 60 | 196 | 2.0 | 5.0 | 0.00 | 0.00 | 0.00 | 91 | 1004.1 |
| 20260506204057 | 60 | 147 | 0.0 | 2.0 | 0.00 | 0.00 | 0.00 | 91 | 1004.0 |
| 20260506203556 | 60 | 241 | 2.0 | 3.0 | 0.00 | 0.00 | 0.00 | 91 | 1004.2 |
| 20260506203052 | 60 | 153 | 2.0 | 3.0 | 0.00 | 0.00 | 0.00 | 90 | 1004.0 |
| 20260506202550 | 61 | 189 | 0.0 | 2.0 | 0.00 | 0.00 | 0.00 | 90 | 1003.9 |
| 20260506202046 | 61 | 149 | 1.0 | 2.0 | 0.00 | 0.00 | 0.00 | 90 | 1004.1 |
| 20260506201544 | 61 | 168 | 1.0 | 1.0 | 0.00 | 0.00 | 0.00 | 89 | 1004.0 |
| 20260506201040 | 62 | 122 | 0.0 | 2.0 | 0.00 | 0.00 | 0.00 | 89 | 1004.0 |
| 20260506200536 | 62 | 103 | 1.0 | 1.0 | 0.00 | 0.00 | 0.00 | 88 | 1004.2 |
| 20260506200033 | 62 | 109 | 1.0 | 3.0 | 0.00 | 0.00 | 0.00 | 86 | 1004.0 |
| 20260506195530 | 62 | 146 | 0.0 | 1.0 | 0.00 | 0.00 | 0.00 | 86 | 1004.3 |
| 20260506195026 | 62 | 268 | 1.0 | 2.0 | 0.00 | 0.00 | 0.00 | 85 | 1004.4 |
| 20260506194524 | 62 | 125 | 1.0 | 2.0 | 0.00 | 0.00 | 0.00 | 86 | 1004.0 |
| 20260506194020 | 62 | 240 | 1.0 | 3.0 | 0.00 | 0.00 | 0.00 | 86 | 1004.3 |
| 20260506193518 | 62 | 230 | 1.0 | 3.0 | 0.00 | 0.00 | 0.00 | 86 | 1004.2 |
| 20260506193015 | 62 | 138 | 0.0 | 1.0 | 0.00 | 0.00 | 0.00 | 86 | 1004.2 |
| 20260506192511 | 62 | 184 | 0.0 | 1.0 | 0.00 | 0.00 | 0.00 | 87 | 1004.1 |
| 20260506192007 | 62 | 141 | 1.0 | 1.0 | 0.00 | 0.00 | 0.00 | 88 | 1004.2 |
| 20260506191504 | 62 | 130 | 0.0 | 1.0 | 0.00 | 0.00 | 0.00 | 88 | 1004.2 |
| 20260506191001 | 62 | 173 | 0.0 | 1.0 | 0.00 | 0.00 | 0.00 | 88 | 1004.2 |
| 20260506190458 | 63 | 118 | 0.0 | 0.0 | 0.00 | 0.00 | 0.00 | 89 | 1003.9 |
| 20260506185954 | 63 | 125 | 0.0 | 0.0 | 0.00 | 0.00 | 0.00 | 88 | 1004.1 |
| 20260506185452 | 63 | 102 | 0.0 | 0.0 | 0.00 | 0.00 | 0.00 | 87 | 1004.3 |
| 20260506184948 | 63 | 124 | 0.0 | 1.0 | 0.00 | 0.00 | 0.00 | 87 | 1004.4 |
| 20260506184446 | 63 | 113 | 0.0 | 0.0 | 0.00 | 0.00 | 0.00 | 85 | 1004.3 |
| 20260506183943 | 64 | 149 | 1.0 | 1.0 | 0.00 | 0.00 | 0.00 | 83 | 1004.5 |
| 20260506183438 | 64 | 125 | 0.0 | 1.0 | 0.00 | 0.00 | 0.00 | 82 | 1004.6 |
| 20260506182935 | 65 | 126 | 0.0 | 1.0 | 0.00 | 0.00 | 0.00 | 79 | 1004.5 |
| 20260506182432 | 66 | 99 | 1.0 | 1.0 | 0.00 | 0.00 | 0.00 | 77 | 1004.7 |
| 20260506181930 | 67 | 103 | 1.0 | 1.0 | 0.00 | 0.00 | 0.00 | 73 | 1004.8 |
| 20260506181428 | 68 | 142 | 1.0 | 2.0 | 0.00 | 0.00 | 0.00 | 68 | 1004.7 |
| 20260506180924 | 69 | 155 | 1.0 | 2.0 | 0.00 | 0.00 | 0.00 | 63 | 1004.6 |
| 20260506180420 | 69 | 115 | 0.0 | 3.0 | 0.00 | 0.00 | 0.00 | 64 | 1004.5 |
| 20260506175917 | 69 | 174 | 2.0 | 2.0 | 0.00 | 0.00 | 0.00 | 61 | 1004.8 |
| 20260506175414 | 70 | 171 | 2.0 | 3.0 | 0.00 | 0.00 | 0.00 | 59 | 1004.6 |
| 20260506174911 | 71 | 215 | 0.0 | 3.0 | 0.00 | 0.00 | 0.00 | 58 | 1004.6 |
| 20260506174408 | 71 | 207 | 2.0 | 3.0 | 0.00 | 0.00 | 0.00 | 56 | 1004.7 |
| 20260506173900 | 71 | 144 | 1.0 | 2.0 | 0.00 | 0.00 | 0.00 | 56 | 1004.5 |
| 20260506173356 | 71 | 138 | 0.0 | 2.0 | 0.00 | 0.00 | 0.00 | 57 | 1004.5 |
| 20260506172853 | 72 | 241 | 2.0 | 3.0 | 0.00 | 0.00 | 0.00 | 54 | 1004.7 |
| 20260506172349 | 72 | 150 | 3.0 | 6.0 | 0.00 | 0.00 | 0.00 | 52 | 1004.6 |
| 20260506171842 | 72 | 210 | 2.0 | 3.0 | 0.00 | 0.00 | 0.00 | 52 | 1004.4 |
| 20260506171339 | 73 | 200 | 4.0 | 7.0 | 0.00 | 0.00 | 0.00 | 52 | 1004.6 |
| 20260506170836 | 73 | 171 | 3.0 | 5.0 | 0.00 | 0.00 | 0.00 | 52 | 1004.4 |
| 20260506170331 | 73 | 263 | 3.0 | 5.0 | 0.00 | 0.00 | 0.00 | 52 | 1004.5 |
| 20260506165826 | 73 | 185 | 1.0 | 2.0 | 0.00 | 0.00 | 0.00 | 54 | 1004.6 |
| 20260506165323 | 73 | 112 | 1.0 | 5.0 | 0.00 | 0.00 | 0.00 | 53 | 1004.5 |
| 20260506164819 | 72 | 186 | 2.0 | 2.0 | 0.00 | 0.00 | 0.00 | 54 | 1004.7 |
| 20260506164316 | 71 | 142 | 3.0 | 3.0 | 0.00 | 0.00 | 0.00 | 54 | 1005.0 |
| 20260506163813 | 71 | 211 | 2.0 | 5.0 | 0.00 | 0.00 | 0.00 | 55 | 1005.0 |
| 20260506163308 | 71 | 159 | 3.0 | 3.0 | 0.00 | 0.00 | 0.00 | 55 | 1004.9 |
| 20260506162803 | 71 | 173 | 1.0 | 5.0 | 0.00 | 0.00 | 0.00 | 56 | 1005.2 |
| 20260506162301 | 71 | 105 | 2.0 | 2.0 | 0.00 | 0.00 | 0.00 | 57 | 1005.2 |
| 20260506161753 | 71 | 132 | 3.0 | 7.0 | 0.00 | 0.00 | 0.00 | 56 | 1005.2 |
| 20260506161250 | 71 | 138 | 2.0 | 5.0 | 0.00 | 0.00 | 0.00 | 57 | 1005.2 |
| 20260506160748 | 70 | 142 | 1.0 | 2.0 | 0.00 | 0.00 | 0.00 | 58 | 1005.4 |
| 20260506160244 | 70 | 115 | 0.0 | 2.0 | 0.00 | 0.00 | 0.00 | 58 | 1005.6 |
| 20260506155743 | 70 | 193 | 3.0 | 5.0 | 0.00 | 0.00 | 0.00 | 58 | 1005.6 |
| 20260506155239 | 70 | 295 | 2.0 | 2.0 | 0.00 | 0.00 | 0.00 | 58 | 1005.9 |
| 20260506153352 | 69 | 123 | 1.0 | 2.0 | 0.00 | 0.00 | 0.00 | 62 | 1005.9 |
| 20260506152849 | 69 | 201 | 1.0 | 2.0 | 0.00 | 0.00 | 0.00 | 63 | 1006.0 |
| 20260506152346 | 69 | 118 | 0.0 | 2.0 | 0.00 | 0.00 | 0.00 | 62 | 1006.3 |
| 20260506151845 | 69 | 192 | 1.0 | 2.0 | 0.00 | 0.00 | 0.00 | 62 | 1006.3 |
| 20260506151341 | 69 | 183 | 1.0 | 3.0 | 0.00 | 0.00 | 0.00 | 61 | 1006.4 |
| 20260506150839 | 69 | 160 | 0.0 | 3.0 | 0.00 | 0.00 | 0.00 | 61 | 1006.4 |
| 20260506150335 | 69 | 292 | 2.0 | 3.0 | 0.00 | 0.00 | 0.00 | 61 | 1006.5 |
| 20260506145832 | 69 | 181 | 2.0 | 2.0 | 0.00 | 0.00 | 0.00 | 62 | 1006.3 |
| 20260506145328 | 69 | 175 | 3.0 | 5.0 | 0.00 | 0.00 | 0.00 | 60 | 1006.3 |
| 20260506144826 | 69 | 54 | 2.0 | 3.0 | 0.00 | 0.00 | 0.00 | 62 | 1006.3 |
| 20260506144322 | 68 | 177 | 1.0 | 6.0 | 0.00 | 0.00 | 0.00 | 63 | 1006.6 |
| 20260506143821 | 68 | 129 | 1.0 | 3.0 | 0.00 | 0.00 | 0.00 | 63 | 1006.4 |
| 20260506143317 | 69 | 222 | 1.0 | 3.0 | 0.00 | 0.00 | 0.00 | 62 | 1006.6 |
| 20260506142816 | 69 | 209 | 3.0 | 8.0 | 0.00 | 0.00 | 0.00 | 62 | 1006.5 |
| 20260506142313 | 68 | 144 | 2.0 | 6.0 | 0.00 | 0.00 | 0.00 | 63 | 1006.4 |
| 20260506141812 | 68 | 141 | 0.0 | 2.0 | 0.00 | 0.00 | 0.00 | 64 | 1006.4 |
| 20260506141309 | 68 | 129 | 1.0 | 5.0 | 0.00 | 0.00 | 0.00 | 63 | 1006.2 |
| 20260506140807 | 68 | 209 | 1.0 | 1.0 | 0.00 | 0.00 | 0.00 | 64 | 1006.1 |
| 20260506140303 | 68 | 195 | 1.0 | 3.0 | 0.00 | 0.00 | 0.00 | 64 | 1006.1 |
| 20260506135801 | 67 | 255 | 1.0 | 3.0 | 0.00 | 0.00 | 0.00 | 65 | 1006.1 |
| 20260506135257 | 67 | 18 | 2.0 | 3.0 | 0.00 | 0.00 | 0.00 | 66 | 1006.3 |
| 20260506134754 | 67 | 146 | 2.0 | 5.0 | 0.00 | 0.00 | 0.00 | 66 | 1006.3 |
| 20260506134250 | 67 | 216 | 3.0 | 5.0 | 0.00 | 0.00 | 0.00 | 65 | 1006.2 |
| 20260506133747 | 67 | 98 | 0.0 | 2.0 | 0.00 | 0.00 | 0.00 | 67 | 1006.4 |
| 20260506133244 | 66 | 83 | 1.0 | 2.0 | 0.00 | 0.00 | 0.00 | 67 | 1006.5 |
| 20260506132741 | 66 | 175 | 2.0 | 2.0 | 0.00 | 0.00 | 0.00 | 68 | 1006.6 |
| 20260506132238 | 66 | 212 | 1.0 | 2.0 | 0.00 | 0.00 | 0.00 | 69 | 1006.7 |
| 20260506131736 | 66 | 243 | 2.0 | 5.0 | 0.00 | 0.00 | 0.00 | 68 | 1006.7 |
| 20260506131232 | 66 | 146 | 1.0 | 2.0 | 0.00 | 0.00 | 0.00 | 69 | 1006.9 |
| 20260506130729 | 65 | 156 | 2.0 | 2.0 | 0.00 | 0.00 | 0.00 | 70 | 1007.0 |
| 20260506130225 | 65 | 100 | 2.0 | 7.0 | 0.00 | 0.00 | 0.00 | 70 | 1006.7 |
| 20260506125724 | 64 | 105 | 0.0 | 5.0 | 0.00 | 0.00 | 0.00 | 71 | 1007.0 |
| 20260506125221 | 64 | 184 | 2.0 | 5.0 | 0.00 | 0.00 | 0.00 | 70 | 1006.9 |
| 20260506124719 | 64 | 117 | 1.0 | 5.0 | 0.00 | 0.00 | 0.00 | 71 | 1007.0 |
| 20260506124217 | 64 | 216 | 2.0 | 3.0 | 0.00 | 0.00 | 0.00 | 70 | 1006.9 |
| 20260506123714 | 64 | 177 | 0.0 | 6.0 | 0.00 | 0.00 | 0.00 | 70 | 1007.0 |
| 20260506123213 | 64 | 173 | 3.0 | 5.0 | 0.00 | 0.00 | 0.00 | 70 | 1006.7 |
| 20260506122709 | 64 | 204 | 2.0 | 6.0 | 0.00 | 0.00 | 0.00 | 70 | 1006.7 |
| 20260506122207 | 64 | 156 | 1.0 | 2.0 | 0.00 | 0.00 | 0.00 | 71 | 1006.9 |
| 20260506121704 | 63 | 89 | 0.0 | 2.0 | 0.00 | 0.00 | 0.00 | 72 | 1006.9 |
| 20260506121200 | 63 | 106 | 0.0 | 0.0 | 0.00 | 0.00 | 0.00 | 72 | 1007.1 |
| 20260506120658 | 63 | 153 | 1.0 | 2.0 | 0.00 | 0.00 | 0.00 | 72 | 1007.1 |
| 20260506120156 | 64 | 155 | 0.0 | 1.0 | 0.00 | 0.00 | 0.00 | 71 | 1007.1 |
| 20260506115654 | 63 | 98 | 2.0 | 3.0 | 0.00 | 0.00 | 0.00 | 71 | 1007.0 |
| 20260506115152 | 62 | 120 | 1.0 | 2.0 | 0.00 | 0.00 | 0.00 | 74 | 1007.1 |
| 20260506114649 | 62 | 231 | 2.0 | 2.0 | 0.00 | 0.00 | 0.00 | 74 | 1007.2 |
| 20260506114146 | 62 | 152 | 1.0 | 1.0 | 0.00 | 0.00 | 0.00 | 74 | 1007.6 |
| 20260506113645 | 62 | 128 | 0.0 | 1.0 | 0.00 | 0.00 | 0.00 | 75 | 1007.3 |
| 20260506113142 | 62 | 259 | 1.0 | 2.0 | 0.00 | 0.00 | 0.00 | 74 | 1007.4 |
| 20260506112638 | 62 | 156 | 1.0 | 2.0 | 0.00 | 0.00 | 0.00 | 74 | 1007.2 |
| 20260506112136 | 61 | 103 | 0.0 | 3.0 | 0.00 | 0.00 | 0.00 | 74 | 1007.4 |
| 20260506111633 | 61 | 131 | 1.0 | 3.0 | 0.00 | 0.00 | 0.00 | 75 | 1007.5 |
| 20260506111131 | 61 | 130 | 0.0 | 2.0 | 0.00 | 0.00 | 0.00 | 75 | 1007.6 |
| 20260506110628 | 61 | 118 | 0.0 | 1.0 | 0.00 | 0.00 | 0.00 | 75 | 1007.5 |
| 20260506110125 | 61 | 217 | 0.0 | 1.0 | 0.00 | 0.00 | 0.00 | 75 | 1007.3 |
| 20260506105622 | 61 | 148 | 1.0 | 2.0 | 0.00 | 0.00 | 0.00 | 75 | 1007.3 |
| 20260506105119 | 60 | 150 | 1.0 | 1.0 | 0.00 | 0.00 | 0.00 | 76 | 1007.2 |
| 20260506104617 | 60 | 131 | 0.0 | 1.0 | 0.00 | 0.00 | 0.00 | 76 | 1007.5 |
| 20260506104114 | 60 | 138 | 0.0 | 1.0 | 0.00 | 0.00 | 0.00 | 77 | 1007.5 |
| 20260506103611 | 60 | 134 | 0.0 | 2.0 | 0.00 | 0.00 | 0.00 | 77 | 1007.5 |
| 20260506103108 | 60 | 136 | 0.0 | 1.0 | 0.00 | 0.00 | 0.00 | 77 | 1007.4 |
| 20260506102606 | 60 | 127 | 0.0 | 0.0 | 0.00 | 0.00 | 0.00 | 77 | 1007.3 |
| 20260506102104 | 60 | 147 | 0.0 | 1.0 | 0.00 | 0.00 | 0.00 | 76 | 1007.5 |
| 20260506101600 | 60 | 139 | 0.0 | 1.0 | 0.00 | 0.00 | 0.00 | 76 | 1007.3 |
| 20260506101057 | 60 | 159 | 1.0 | 2.0 | 0.00 | 0.00 | 0.00 | 75 | 1007.4 |
| 20260506100555 | 60 | 129 | 0.0 | 1.0 | 0.00 | 0.00 | 0.00 | 75 | 1007.4 |
| 20260506100053 | 60 | 176 | 1.0 | 2.0 | 0.00 | 0.00 | 0.00 | 75 | 1007.1 |
| 20260506095551 | 60 | 198 | 1.0 | 2.0 | 0.00 | 0.00 | 0.00 | 75 | 1007.4 |
| 20260506095048 | 60 | 112 | 0.0 | 5.0 | 0.00 | 0.00 | 0.00 | 75 | 1007.2 |
| 20260506094545 | 60 | 147 | 0.0 | 2.0 | 0.00 | 0.00 | 0.00 | 74 | 1007.2 |
| 20260506094043 | 60 | 138 | 1.0 | 1.0 | 0.00 | 0.00 | 0.00 | 75 | 1007.2 |
| 20260506093541 | 60 | 165 | 0.0 | 2.0 | 0.00 | 0.00 | 0.00 | 74 | 1007.1 |
| 20260506093038 | 60 | 182 | 1.0 | 2.0 | 0.00 | 0.00 | 0.00 | 74 | 1007.1 |
| 20260506092536 | 60 | 137 | 0.0 | 3.0 | 0.00 | 0.00 | 0.00 | 74 | 1006.9 |
| 20260506092033 | 60 | 177 | 0.0 | 5.0 | 0.00 | 0.00 | 0.00 | 74 | 1007.4 |
| 20260506091531 | 60 | 116 | 0.0 | 0.0 | 0.00 | 0.00 | 0.00 | 74 | 1007.2 |
| 20260506091028 | 60 | 68 | 3.0 | 3.0 | 0.00 | 0.00 | 0.00 | 74 | 1007.1 |
| 20260506090526 | 60 | 117 | 0.0 | 2.0 | 0.00 | 0.00 | 0.00 | 74 | 1007.2 |
| 20260506090022 | 60 | 307 | 1.0 | 1.0 | 0.00 | 0.00 | 0.00 | 73 | 1007.2 |
| 20260506085519 | 60 | 247 | 1.0 | 2.0 | 0.00 | 0.00 | 0.00 | 73 | 1007.3 |
| 20260506085015 | 60 | 142 | 0.0 | 1.0 | 0.00 | 0.00 | 0.00 | 73 | 1007.1 |
| 20260506084512 | 60 | 117 | 0.0 | 0.0 | 0.00 | 0.00 | 0.00 | 73 | 1007.3 |
| 20260506084008 | 60 | 183 | 1.0 | 2.0 | 0.00 | 0.00 | 0.00 | 73 | 1007.3 |
| 20260506083506 | 61 | 130 | 0.0 | 1.0 | 0.00 | 0.00 | 0.00 | 73 | 1007.3 |
| 20260506083003 | 61 | 172 | 1.0 | 1.0 | 0.00 | 0.00 | 0.00 | 73 | 1007.2 |
| 20260506082500 | 61 | 126 | 0.0 | 0.0 | 0.00 | 0.00 | 0.00 | 72 | 1007.1 |
| 20260506081955 | 61 | 215 | 1.0 | 2.0 | 0.00 | 0.00 | 0.00 | 72 | 1007.2 |
| 20260506081454 | 61 | 92 | 0.0 | 2.0 | 0.00 | 0.00 | 0.00 | 71 | 1007.3 |
| 20260506080951 | 61 | 136 | 1.0 | 2.0 | 0.00 | 0.00 | 0.00 | 71 | 1007.1 |
| 20260506080448 | 62 | 164 | 0.0 | 1.0 | 0.00 | 0.00 | 0.00 | 70 | 1007.1 |
| 20260506073431 | 62 | 155 | 1.0 | 2.0 | 0.00 | 0.00 | 0.00 | 68 | 1007.3 |
| 20260506072929 | 62 | 322 | 1.0 | 2.0 | 0.00 | 0.00 | 0.00 | 68 | 1007.1 |
| 20260506072426 | 62 | 83 | 0.0 | 1.0 | 0.00 | 0.00 | 0.00 | 68 | 1007.1 |
| 20260506071924 | 62 | 149 | 1.0 | 1.0 | 0.00 | 0.00 | 0.00 | 68 | 1007.0 |
| 20260506071422 | 62 | 139 | 1.0 | 1.0 | 0.00 | 0.00 | 0.00 | 67 | 1006.9 |
| 20260506070918 | 62 | 135 | 0.0 | 3.0 | 0.00 | 0.00 | 0.00 | 67 | 1006.9 |
| 20260506070415 | 63 | 216 | 1.0 | 3.0 | 0.00 | 0.00 | 0.00 | 66 | 1006.7 |
| 20260506062352 | 63 | 122 | 1.0 | 2.0 | 0.00 | 0.00 | 0.00 | 63 | 1006.9 |
| 20260506061848 | 63 | 164 | 1.0 | 2.0 | 0.00 | 0.00 | 0.00 | 63 | 1006.7 |
| 20260506061345 | 63 | 143 | 1.0 | 1.0 | 0.00 | 0.00 | 0.00 | 63 | 1006.7 |
| 20260506060843 | 64 | 150 | 0.0 | 1.0 | 0.00 | 0.00 | 0.00 | 62 | 1006.7 |
| 20260506060341 | 64 | 189 | 1.0 | 2.0 | 0.00 | 0.00 | 0.00 | 62 | 1006.6 |
| 20260506051313 | 63 | 214 | 1.0 | 2.0 | 0.00 | 0.00 | 0.00 | 61 | 1006.9 |
| 20260506050810 | 63 | 173 | 1.0 | 2.0 | 0.00 | 0.00 | 0.00 | 61 | 1007.0 |
| 20260506050308 | 63 | 55 | 2.0 | 2.0 | 0.00 | 0.00 | 0.00 | 62 | 1007.0 |
| 20260506044758 | 63 | 136 | 0.0 | 1.0 | 0.00 | 0.00 | 0.00 | 61 | 1007.3 |
| 20260506044256 | 63 | 171 | 0.0 | 1.0 | 0.00 | 0.00 | 0.00 | 61 | 1007.3 |
| 20260506043753 | 63 | 148 | 1.0 | 1.0 | 0.00 | 0.00 | 0.00 | 61 | 1007.2 |
| 20260506043250 | 63 | 162 | 0.0 | 5.0 | 0.00 | 0.00 | 0.00 | 60 | 1007.2 |
| 20260506042749 | 63 | 218 | 1.0 | 1.0 | 0.00 | 0.00 | 0.00 | 61 | 1007.3 |
| 20260506042247 | 63 | 135 | 0.0 | 1.0 | 0.00 | 0.00 | 0.00 | 60 | 1007.3 |
| 20260506041745 | 63 | 111 | 0.0 | 2.0 | 0.00 | 0.00 | 0.00 | 60 | 1007.1 |
| 20260506041242 | 64 | 119 | 0.0 | 0.0 | 0.00 | 0.00 | 0.00 | 60 | 1007.1 |
| 20260506040739 | 64 | 122 | 0.0 | 2.0 | 0.00 | 0.00 | 0.00 | 60 | 1007.1 |